Location: Helsinki
(60.1699°N, 24.9384°E)
Time: 01:54:59
(UTC+02:00)

A-11 Canister half - Visible Passes

Search period start: 27 October 2020 00:00
Search period end: 06 November 2020 00:00
Orbit: 1526 x 1683 km, 47.3° (Epoch: 26 October)

Date Brightness Start Highest point End Pass type
(mag) Time Alt. Az. Time Alt. Az. Time Alt. Az.
27 Oct 9.9 18:48:09 10° WSW 18:56:20 36° SSW 19:03:01 15° SE visible
27 Oct 10.3 20:52:33 10° W 20:59:12 23° SW 21:01:19 21° SSW visible
28 Oct 10.0 18:26:33 10° WSW 18:34:46 36° S 18:42:35 11° SE visible
28 Oct 10.3 20:30:53 10° W 20:37:41 23° SW 20:40:53 19° S visible
29 Oct 10.0 18:04:57 10° WSW 18:13:12 36° S 18:21:22 10° SE visible
29 Oct 10.4 20:09:14 10° W 20:16:08 24° SSW 20:20:32 17° S visible
30 Oct 10.0 17:43:21 10° WSW 17:51:38 37° S 17:59:49 10° SE visible
30 Oct 10.4 19:47:34 10° W 19:54:36 25° SSW 20:00:13 14° S visible
31 Oct 10.1 17:21:45 10° WSW 17:30:04 37° S 17:38:16 10° SE visible
31 Oct 10.4 19:25:56 10° W 19:33:04 25° SSW 19:39:59 10° SSE visible
01 Nov 10.1 17:00:09 10° WSW 17:08:30 37° S 17:16:43 10° ESE visible
01 Nov 10.4 19:04:17 10° W 19:11:31 26° SSW 19:18:43 10° SSE visible
01 Nov 11.1 21:12:49 10° WSW 21:13:38 10° SW 21:14:27 10° SW visible
02 Nov 10.5 18:42:38 10° W 18:49:59 27° SSW 18:57:16 10° SSE visible
02 Nov 11.0 20:50:07 10° WSW 20:52:08 11° SW 20:54:10 10° SW visible
03 Nov 10.5 18:21:00 10° W 18:28:26 28° SSW 18:35:48 10° SSE visible
03 Nov 11.1 20:27:55 10° WSW 20:30:39 12° SW 20:33:22 10° SSW visible
04 Nov 10.5 17:59:21 10° W 18:06:54 28° SSW 18:14:21 10° SSE visible
04 Nov 11.1 20:05:53 10° WSW 20:09:09 12° SW 20:12:24 10° SSW visible
05 Nov 10.6 17:37:43 10° W 17:45:21 29° SSW 17:52:53 10° SSE visible
05 Nov 11.1 19:43:56 10° WSW 19:47:39 13° SW 19:51:21 10° SSW visible
